Time,TemperatureF,DewpointF,PressureIn,WindDirection,WindDirectionDegrees,WindSpeedMPH,WindSpeedGustMPH,Humidity,HourlyPrecipIn,Conditions,Clouds,dailyrainin,SoftwareType,DateUTC
2013-07-13 00:02:00,74.0,71.0,29.96,ESE,118,0.0,-999.0,91,-99.99,,,-99.99,,2013-07-13 04:02:00,
2013-07-13 00:32:00,74.0,71.0,29.96,ESE,118,0.0,-999.0,91,-99.99,,,-99.99,,2013-07-13 04:32:00,
2013-07-13 00:44:00,74.0,72.0,29.96,ESE,118,0.0,-999.0,92,-99.99,,,-99.99,,2013-07-13 04:44:00,
2013-07-13 00:52:00,74.0,72.0,29.96,ESE,118,0.0,-999.0,92,-99.99,,,-99.99,,2013-07-13 04:52:00,
2013-07-13 01:01:00,74.0,72.0,29.96,ESE,118,0.0,-999.0,92,-99.99,,,-99.99,,2013-07-13 05:01:00,
2013-07-13 01:11:00,74.0,72.0,29.96,ESE,118,0.0,-999.0,92,-99.99,,,-99.99,,2013-07-13 05:11:00,
2013-07-13 01:22:00,74.0,72.0,29.96,ESE,118,0.0,-999.0,92,-99.99,,,-99.99,,2013-07-13 05:22:00,
2013-07-13 01:32:00,74.0,72.0,29.96,ESE,118,0.0,-999.0,92,-99.99,,,-99.99,,2013-07-13 05:32:00,
2013-07-13 01:42:00,74.0,72.0,29.95,ESE,118,0.0,-999.0,92,-99.99,,,-99.99,,2013-07-13 05:42:00,
2013-07-13 01:52:00,74.0,72.0,29.95,ESE,118,0.0,-999.0,92,-99.99,,,-99.99,,2013-07-13 05:52:00,
2013-07-13 02:02:00,75.0,73.0,29.95,ESE,118,0.0,-999.0,92,-99.99,,,-99.99,,2013-07-13 06:02:00,
2013-07-13 02:11:00,75.0,73.0,29.95,ESE,119,0.0,-999.0,92,-99.99,,,-99.99,,2013-07-13 06:11:00,
2013-07-13 02:22:00,75.0,73.0,29.95,ESE,119,0.0,-999.0,92,-99.99,,,-99.99,,2013-07-13 06:22:00,
2013-07-13 02:32:00,75.0,73.0,29.95,ESE,119,1.0,-999.0,92,-99.99,,,-99.99,,2013-07-13 06:32:00,
2013-07-13 02:43:00,75.0,73.0,29.96,ESE,119,1.0,-999.0,92,-99.99,,,-99.99,,2013-07-13 06:43:00,
2013-07-13 02:52:00,75.0,73.0,29.96,East,100,1.0,-999.0,92,-99.99,,,-99.99,,2013-07-13 06:52:00,
2013-07-13 03:02:00,75.0,73.0,29.96,East,100,1.0,-999.0,92,-99.99,,,-99.99,,2013-07-13 07:02:00,
2013-07-13 03:11:00,75.0,73.0,29.96,NW,323,3.0,-999.0,92,-99.99,,,-99.99,,2013-07-13 07:11:00,
2013-07-13 03:22:00,75.0,73.0,29.96,NW,323,3.0,-999.0,92,-99.99,,,-99.99,,2013-07-13 07:22:00,
2013-07-13 03:33:00,75.0,73.0,29.96,NW,323,2.0,-999.0,92,-99.99,,,-99.99,,2013-07-13 07:33:00,
2013-07-13 03:44:00,75.0,73.0,29.96,NNW,330,2.0,-999.0,92,-99.99,,,-99.99,,2013-07-13 07:44:00,
2013-07-13 03:53:00,75.0,73.0,29.96,NNW,330,1.0,-999.0,92,-99.99,,,-99.99,,2013-07-13 07:53:00,
2013-07-13 04:02:00,75.0,73.0,29.96,NNW,330,1.0,-999.0,92,-99.99,,,-99.99,,2013-07-13 08:02:00,
2013-07-13 04:12:00,75.0,73.0,29.96,North,355,1.0,-999.0,92,-99.99,,,-99.99,,2013-07-13 08:12:00,
2013-07-13 04:22:00,75.0,73.0,29.96,North,355,0.0,-999.0,92,-99.99,,,-99.99,,2013-07-13 08:22:00,
2013-07-13 04:33:00,75.0,73.0,29.96,North,355,0.0,-999.0,92,-99.99,,,-99.99,,2013-07-13 08:33:00,
2013-07-13 04:43:00,75.0,73.0,29.96,North,355,1.0,-999.0,92,-99.99,,,-99.99,,2013-07-13 08:43:00,
2013-07-13 04:52:00,75.0,73.0,29.96,North,355,0.0,-999.0,92,-99.99,,,-99.99,,2013-07-13 08:52:00,
2013-07-13 05:02:00,75.0,73.0,29.96,North,355,0.0,-999.0,92,-99.99,,,-99.99,,2013-07-13 09:02:00,
2013-07-13 05:11:00,74.0,72.0,29.96,North,5,3.0,-999.0,92,-99.99,,,-99.99,,2013-07-13 09:11:00,
2013-07-13 05:22:00,74.0,72.0,29.96,NNW,348,2.0,-999.0,92,-99.99,,,-99.99,,2013-07-13 09:22:00,
2013-07-13 05:33:00,74.0,72.0,29.96,NNW,348,2.0,-999.0,92,-99.99,,,-99.99,,2013-07-13 09:33:00,
2013-07-13 05:43:00,74.0,72.0,29.96,North,11,2.0,-999.0,92,-99.99,,,-99.99,,2013-07-13 09:43:00,
2013-07-13 05:53:00,74.0,72.0,29.96,North,11,2.0,-999.0,92,-99.99,,,-99.99,,2013-07-13 09:53:00,
2013-07-13 06:01:00,74.0,72.0,29.95,North,11,1.0,-999.0,92,-99.99,,,-99.99,,2013-07-13 10:01:00,
2013-07-13 06:32:00,73.0,71.0,29.97,North,355,5.0,-999.0,92,-99.99,,,-99.99,,2013-07-13 10:32:00,
2013-07-13 06:43:00,73.0,71.0,29.97,NNW,331,4.0,-999.0,93,-99.99,,,-99.99,,2013-07-13 10:43:00,
2013-07-13 07:02:00,73.0,71.0,29.98,NNE,17,3.0,-999.0,93,-99.99,,,-99.99,,2013-07-13 11:02:00,
2013-07-13 07:11:00,73.0,71.0,29.97,North,355,3.0,-999.0,93,-99.99,,,-99.99,,2013-07-13 11:11:00,
2013-07-13 07:32:00,73.0,71.0,29.98,North,355,2.0,-999.0,93,-99.99,,,-99.99,,2013-07-13 11:32:00,
2013-07-13 07:43:00,74.0,72.0,29.99,NNW,348,4.0,-999.0,93,-99.99,,,-99.99,,2013-07-13 11:43:00,
2013-07-13 07:52:00,74.0,72.0,29.99,NNW,348,4.0,-999.0,93,-99.99,,,-99.99,,2013-07-13 11:52:00,
2013-07-13 08:02:00,74.0,72.0,29.99,NNE,13,3.0,-999.0,93,-99.99,,,-99.99,,2013-07-13 12:02:00,
2013-07-13 08:32:00,74.0,72.0,30.01,NE,38,2.0,-999.0,92,-99.99,,,-99.99,,2013-07-13 12:32:00,
2013-07-13 09:01:00,74.0,72.0,30.01,NNE,28,3.0,-999.0,92,-99.99,,,-99.99,,2013-07-13 13:01:00,
2013-07-13 09:12:00,74.0,72.0,30.01,NNE,32,3.0,-999.0,92,-99.99,,,-99.99,,2013-07-13 13:12:00,
2013-07-13 09:22:00,74.0,72.0,30.02,NW,319,3.0,-999.0,92,-99.99,,,-99.99,,2013-07-13 13:22:00,
2013-07-13 09:43:00,74.0,72.0,30.02,NNW,341,4.0,-999.0,92,-99.99,,,-99.99,,2013-07-13 13:43:00,
2013-07-13 09:53:00,74.0,72.0,30.02,NNW,341,4.0,-999.0,92,-99.99,,,-99.99,,2013-07-13 13:53:00,
2013-07-13 10:11:00,74.0,72.0,30.03,NW,325,2.0,-999.0,92,-99.99,,,-99.99,,2013-07-13 14:11:00,
2013-07-13 10:22:00,75.0,73.0,30.03,NW,325,2.0,-999.0,92,-99.99,,,-99.99,,2013-07-13 14:22:00,
2013-07-13 10:32:00,75.0,73.0,30.03,North,9,1.0,-999.0,92,-99.99,,,-99.99,,2013-07-13 14:32:00,
2013-07-13 10:53:00,75.0,73.0,30.03,North,355,2.0,-999.0,92,-99.99,,,-99.99,,2013-07-13 14:53:00,
2013-07-13 11:02:00,75.0,73.0,30.03,NNW,343,3.0,-999.0,92,-99.99,,,-99.99,,2013-07-13 15:02:00,
2013-07-13 11:22:00,75.0,73.0,30.03,NNW,334,3.0,-999.0,92,-99.99,,,-99.99,,2013-07-13 15:22:00,
2013-07-13 11:33:00,75.0,73.0,30.03,North,360,5.0,-999.0,92,-99.99,,,-99.99,,2013-07-13 15:33:00,
2013-07-13 11:43:00,76.0,74.0,30.03,NNE,13,3.0,-999.0,92,-99.99,,,-99.99,,2013-07-13 15:43:00,
2013-07-13 11:53:00,76.0,74.0,30.03,NNE,13,3.0,-999.0,92,-99.99,,,-99.99,,2013-07-13 15:53:00,
2013-07-13 12:02:00,76.0,74.0,30.03,NE,44,3.0,-999.0,92,-99.99,,,-99.99,,2013-07-13 16:02:00,
2013-07-13 12:12:00,76.0,74.0,30.03,NE,44,3.0,-999.0,92,-99.99,,,-99.99,,2013-07-13 16:12:00,
2013-07-13 12:22:00,76.0,74.0,30.03,NNW,334,2.0,-999.0,92,-99.99,,,-99.99,,2013-07-13 16:22:00,
2013-07-13 12:33:00,77.0,74.0,30.03,NNW,346,3.0,-999.0,91,-99.99,,,-99.99,,2013-07-13 16:33:00,
2013-07-13 12:43:00,78.0,74.0,30.03,ESE,106,2.0,-999.0,89,-99.99,,,-99.99,,2013-07-13 16:43:00,
2013-07-13 12:53:00,78.0,74.0,30.03,ESE,106,2.0,-999.0,89,-99.99,,,-99.99,,2013-07-13 16:53:00,
2013-07-13 13:01:00,80.0,76.0,30.03,ENE,57,1.0,-999.0,87,-99.99,,,-99.99,,2013-07-13 17:01:00,
2013-07-13 13:12:00,81.0,76.0,30.02,NE,47,2.0,-999.0,84,-99.99,,,-99.99,,2013-07-13 17:12:00,
2013-07-13 13:22:00,81.0,76.0,30.02,NE,47,2.0,-999.0,84,-99.99,,,-99.99,,2013-07-13 17:22:00,
2013-07-13 13:33:00,81.0,76.0,30.02,NNE,25,3.0,-999.0,84,-99.99,,,-99.99,,2013-07-13 17:33:00,
2013-07-13 13:43:00,82.0,76.0,30.02,ENE,66,5.0,-999.0,82,-99.99,,,-99.99,,2013-07-13 17:43:00,
2013-07-13 13:52:00,82.0,76.0,30.02,ENE,66,5.0,-999.0,82,-99.99,,,-99.99,,2013-07-13 17:52:00,
2013-07-13 14:02:00,83.0,77.0,30.01,East,94,4.0,-999.0,83,-99.99,,,-99.99,,2013-07-13 18:02:00,
2013-07-13 14:22:00,83.0,77.0,30.02,East,101,7.0,-999.0,82,-99.99,,,-99.99,,2013-07-13 18:22:00,
2013-07-13 14:32:00,83.0,77.0,30.02,East,101,3.0,-999.0,83,-99.99,,,-99.99,,2013-07-13 18:32:00,
2013-07-13 14:44:00,84.0,78.0,30.01,ESE,103,6.0,-999.0,81,-99.99,,,-99.99,,2013-07-13 18:44:00,
2013-07-13 14:53:00,84.0,78.0,30.01,ESE,103,6.0,-999.0,81,-99.99,,,-99.99,,2013-07-13 18:53:00,
2013-07-13 15:02:00,83.0,77.0,30.01,ESE,105,6.0,-999.0,82,-99.99,,,-99.99,,2013-07-13 19:02:00,
2013-07-13 15:11:00,85.0,78.0,30.02,SE,135,5.0,-999.0,79,-99.99,,,-99.99,,2013-07-13 19:11:00,
2013-07-13 15:22:00,85.0,78.0,30.02,SE,135,5.0,-999.0,79,-99.99,,,-99.99,,2013-07-13 19:22:00,
2013-07-13 15:32:00,85.0,77.0,30.01,South,172,4.0,-999.0,78,-99.99,,,-99.99,,2013-07-13 19:32:00,
2013-07-13 15:44:00,85.0,78.0,30.01,ESE,109,5.0,-999.0,80,-99.99,,,-99.99,,2013-07-13 19:44:00,
2013-07-13 15:52:00,85.0,78.0,30.01,ESE,109,5.0,-999.0,80,-99.99,,,-99.99,,2013-07-13 19:52:00,
2013-07-13 16:01:00,84.0,78.0,30.01,East,90,4.0,-999.0,82,-99.99,,,-99.99,,2013-07-13 20:01:00,
2013-07-13 16:11:00,84.0,78.0,30.01,SE,127,4.0,-999.0,81,-99.99,,,-99.99,,2013-07-13 20:11:00,
2013-07-13 16:22:00,84.0,78.0,30.01,SE,127,4.0,-999.0,81,-99.99,,,-99.99,,2013-07-13 20:22:00,
2013-07-13 16:33:00,84.0,78.0,30.01,SE,126,6.0,-999.0,81,-99.99,,,-99.99,,2013-07-13 20:33:00,
2013-07-13 16:43:00,84.0,77.0,30.01,East,90,5.0,-999.0,80,-99.99,,,-99.99,,2013-07-13 20:43:00,
2013-07-13 16:52:00,84.0,77.0,30.01,East,90,5.0,-999.0,80,-99.99,,,-99.99,,2013-07-13 20:52:00,
2013-07-13 17:02:00,84.0,78.0,30.01,ESE,107,6.0,-999.0,81,-99.99,,,-99.99,,2013-07-13 21:02:00,
2013-07-13 17:12:00,84.0,78.0,30.01,ESE,107,6.0,-999.0,81,-99.99,,,-99.99,,2013-07-13 21:12:00,
2013-07-13 17:22:00,84.0,78.0,30.01,South,180,5.0,-999.0,81,-99.99,,,-99.99,,2013-07-13 21:22:00,
2013-07-13 17:32:00,85.0,77.0,30.02,SE,140,4.0,-999.0,76,-99.99,,,-99.99,,2013-07-13 21:32:00,
2013-07-13 17:43:00,86.0,77.0,30.01,SSE,165,3.0,-999.0,75,-99.99,,,-99.99,,2013-07-13 21:43:00,
2013-07-13 17:53:00,86.0,77.0,30.01,SSE,165,3.0,-999.0,75,-99.99,,,-99.99,,2013-07-13 21:53:00,
2013-07-13 18:01:00,87.0,77.0,30.02,East,92,2.0,-999.0,73,-99.99,,,-99.99,,2013-07-13 22:01:00,
2013-07-13 18:12:00,85.0,75.0,30.02,ESE,103,4.0,-999.0,73,-99.99,,,-99.99,,2013-07-13 22:12:00,
2013-07-13 18:22:00,85.0,75.0,30.02,ESE,103,4.0,-999.0,73,-99.99,,,-99.99,,2013-07-13 22:22:00,
2013-07-13 18:32:00,86.0,77.0,30.03,ESE,116,2.0,-999.0,75,-99.99,,,-99.99,,2013-07-13 22:32:00,
2013-07-13 18:43:00,85.0,77.0,30.03,ENE,72,3.0,-999.0,76,-99.99,,,-99.99,,2013-07-13 22:43:00,
2013-07-13 19:02:00,84.0,76.0,30.03,SE,136,3.0,-999.0,78,-99.99,,,-99.99,,2013-07-13 23:02:00,
2013-07-13 19:11:00,84.0,76.0,30.03,South,171,2.0,-999.0,78,-99.99,,,-99.99,,2013-07-13 23:11:00,
2013-07-13 19:32:00,84.0,77.0,30.04,SW,215,2.0,-999.0,79,-99.99,,,-99.99,,2013-07-13 23:32:00,
2013-07-13 19:42:00,83.0,75.0,30.04,SE,144,5.0,-999.0,78,-99.99,,,-99.99,,2013-07-13 23:42:00,
2013-07-13 19:53:00,83.0,75.0,30.04,SE,144,5.0,-999.0,78,-99.99,,,-99.99,,2013-07-13 23:53:00,
2013-07-13 20:01:00,83.0,75.0,30.04,SE,144,5.0,-999.0,78,-99.99,,,-99.99,,2013-07-14 00:01:00,
2013-07-13 20:12:00,80.0,75.0,30.03,SE,130,3.0,-999.0,84,-99.99,,,-99.99,,2013-07-14 00:12:00,
2013-07-13 20:22:00,80.0,75.0,30.03,SE,130,3.0,-999.0,84,-99.99,,,-99.99,,2013-07-14 00:22:00,
2013-07-13 20:33:00,78.0,73.0,30.04,SE,143,3.0,-999.0,86,-99.99,,,-99.99,,2013-07-14 00:33:00,
2013-07-13 20:42:00,77.0,74.0,30.04,South,177,3.0,-999.0,89,-99.99,,,-99.99,,2013-07-14 00:42:00,
2013-07-13 20:53:00,77.0,74.0,30.04,South,177,3.0,-999.0,89,-99.99,,,-99.99,,2013-07-14 00:53:00,
2013-07-13 21:02:00,76.0,73.0,30.04,SSE,159,4.0,-999.0,90,-99.99,,,-99.99,,2013-07-14 01:02:00,
2013-07-13 21:11:00,76.0,73.0,30.06,ESE,103,2.0,-999.0,90,-99.99,,,-99.99,,2013-07-14 01:11:00,
2013-07-13 21:22:00,76.0,73.0,30.06,ESE,103,2.0,-999.0,90,-99.99,,,-99.99,,2013-07-14 01:22:00,
2013-07-13 21:32:00,75.0,72.0,30.06,East,86,1.0,-999.0,90,-99.99,,,-99.99,,2013-07-14 01:32:00,
2013-07-13 21:43:00,75.0,72.0,30.07,South,186,0.0,-999.0,91,-99.99,,,-99.99,,2013-07-14 01:43:00,
2013-07-13 21:52:00,75.0,72.0,30.07,South,186,0.0,-999.0,91,-99.99,,,-99.99,,2013-07-14 01:52:00,
2013-07-13 22:02:00,75.0,72.0,30.07,South,186,0.0,-999.0,90,-99.99,,,-99.99,,2013-07-14 02:02:00,
2013-07-13 22:11:00,75.0,72.0,30.06,South,186,0.0,-999.0,90,-99.99,,,-99.99,,2013-07-14 02:11:00,
2013-07-13 22:22:00,75.0,72.0,30.06,South,186,0.0,-999.0,90,-99.99,,,-99.99,,2013-07-14 02:22:00,
2013-07-13 22:32:00,75.0,72.0,30.07,South,186,0.0,-999.0,91,-99.99,,,-99.99,,2013-07-14 02:32:00,
2013-07-13 22:43:00,75.0,72.0,30.08,SE,127,1.0,-999.0,91,-99.99,,,-99.99,,2013-07-14 02:43:00,
2013-07-13 22:53:00,75.0,72.0,30.08,SE,127,1.0,-999.0,91,-99.99,,,-99.99,,2013-07-14 02:53:00,
2013-07-13 23:02:00,76.0,73.0,30.08,SE,144,2.0,-999.0,91,-99.99,,,-99.99,,2013-07-14 03:02:00,
2013-07-13 23:11:00,75.0,72.0,30.09,SSE,157,1.0,-999.0,90,-99.99,,,-99.99,,2013-07-14 03:11:00,
2013-07-13 23:22:00,75.0,72.0,30.09,SSE,157,1.0,-999.0,90,-99.99,,,-99.99,,2013-07-14 03:22:00,
2013-07-13 23:32:00,75.0,72.0,30.09,ESE,118,1.0,-999.0,90,-99.99,,,-99.99,,2013-07-14 03:32:00,
2013-07-13 23:43:00,75.0,72.0,30.09,SE,144,1.0,-999.0,90,-99.99,,,-99.99,,2013-07-14 03:43:00,
2013-07-13 23:53:00,75.0,72.0,30.09,SE,144,1.0,-999.0,90,-99.99,,,-99.99,,2013-07-14 03:53:00,